Regional Weather Roundup
Issued by NWS

Home | Current Version | Previous Version | Graphics & Text | Print | Product List | Glossary On
Versions: 1 2 3 4 5 6 7 8 9 10 11 12 13 14 15 16 17 18 19 20 21 22 23 24 25 26 27 28
000
ASUS45 KGTF 030710
RWRMT
MONTANA HOURLY WEATHER ROUNDUP
NATIONAL WEATHER SERVICE GREAT FALLS MT
100 AM MDT SUN MAY 03 2015

NOTE: "FAIR" INDICATES FEW OR NO CLOUDS BELOW 12000 FEET WITH NO
SIGNIFICANT WEATHER AND/OR OBSTRUCTIONS TO VISIBILITY.

MTZ001>007-043-030800-
WEST OF THE DIVIDE

CITY           SKY/WX    TMP DP  RH WIND       PRES   REMARKS
KALISPELL      SUNNY     40  24  53 S5        29.93R
MISSOULA       CLEAR     43  21  41 NW8       29.94R
BUTTE          MOCLDY    41  20  43 S8        29.95S
DEER LODGE       N/A     39  16  38 W7        29.98R
EUREKA           N/A     41  18  38 N3        29.97S
LIBBY            N/A     37  27  65 SE3       29.98R
$$

MTZ008-052>055-030800-
SOUTHWEST MONTANA

CITY           SKY/WX    TMP DP  RH WIND       PRES   REMARKS
BOZEMAN        MOCLDY    46  23  40 N6        29.91R
DILLON         MOCLDY    49  19  30 SE9       29.92R
$$

MTZ009-010-012-014-046-048-049-054-030800-
EAST SLOPES AND CENTRAL MONTANA

CITY           SKY/WX    TMP DP  RH WIND       PRES   REMARKS
CUT BANK       CLOUDY    42  30  62 CALM      30.01S
GREAT FALLS    CLOUDY    45  27  49 NE13      30.00R
MALMSTROM AFB  MOCLDY    43  29  57 N6        30.00R
HELENA         CLEAR     46  30  53 W10       29.96R
$$

MTZ011-013-016-021-045-047-050-051-030800-
NORTH CENTRAL MONTANA

CITY           SKY/WX    TMP DP  RH WIND       PRES   REMARKS
HAVRE          CLOUDY    46  27  47 NW6       29.99R
LEWISTOWN      CLOUDY    47  32  56 N8        29.98R
CHINOOK          N/A     45  28  53 SW3       29.99R
FORT BENTON      N/A     48  25  40 N6        30.01R
$$

MTZ017>020-022>042-056>058-061-062-030800-
EASTERN PLAINS

CITY           SKY/WX    TMP DP  RH WIND       PRES   REMARKS
BAKER          CLOUDY    56  36  47 N20       29.87R
BILLINGS       CLOUDY    54  36  50 NE14      29.93R
GLASGOW        MOCLDY    45  34  65 NW9       29.92R
JORDAN           N/A     48  32  53 N6        29.94R
LIVINGSTON     MOCLDY    52  35  52 E16       29.93R
MILES CITY     CLOUDY    56  34  43 N24       29.90R
SIDNEY         CLOUDY    48  34  57 W9        29.89R
WOLF POINT     MOCLDY    46  34  62 N10       29.91R
BIG TIMBER       N/A     48  34  57 N8        29.97R
FORSYTH          N/A     55  32  41 NE14      29.90R
PLENTYWOOD       N/A     39  34  81 W5        29.90R
POPLAR           N/A     46  36  66 N7        29.91R
$$

REGIONAL REPORTS...DAKOTAS

CITY           SKY/WX    TMP DP  RH WIND       PRES   REMARKS
WILLISTON      MOCLDY    49  34  56 N9        29.86R
MINOT          PTCLDY    51  35  54 NW15      29.79R
DICKINSON      CLOUDY    55  35  47 N10       29.83R
BEACH          CLOUDY    50  36  57 N10       29.89R
CROSBY         FAIR      41  37  87 W9        29.87R
WATFORD CITY   FAIR      48  34  57 N8        29.85R
BISMARCK       MOCLDY    58  35  42 N14       29.75R
GRAND FORKS    CLEAR     52  42  69 NW14      29.62R
FARGO          PTCLDY    58  50  75 S12       29.63R
BUFFALO SD       N/A     60  32  34 N21       29.75R
RAPID CITY     MOCLDY    55  34  45 W7        29.77R
$$

REGIONAL REPORTS...WYOMING/IDAHO/WASHINGTON

CITY           SKY/WX    TMP DP  RH WIND       PRES   REMARKS
GILLETTE       PTCLDY    46  30  53 N3        29.82S
SHERIDAN       MOCLDY    57  34  41 W10       29.88R
BUFFALO WY     MOCLDY    57  30  35 NW21      29.89R
CODY           CLOUDY    55  28  35 N7        29.91R
YELLOWSTONE LA   N/A     42  24  49 CALM      30.01R
IDAHO FALLS    PTCLDY    54  33  45 N8        29.88R
SALMON         CLEAR     50  27  40 E5        29.90R
BOISE          CLEAR     56  31  38 S5        29.82R
SPOKANE        CLEAR     49  28  44 CALM      29.94R
$$

REGIONAL REPORTS...ALBERTA

CITY           SKY/WX    TMP DP  RH WIND       PRES   REMARKS
EDMONTON       CLEAR     34  32  93 W9        29.98R WCI  26
CALGARY        PTCLDY    34  21  60 N7        30.02R WCI  28
LETHBRIDGE     PTCLDY    34  30  86 SW9       30.01R WCI  26
MEDICINE HAT   CLOUDY    34  28  80 S5        30.00R
$$

REGIONAL REPORTS...SASKATCHEWAN

CITY           SKY/WX    TMP DP  RH WIND       PRES   REMARKS
SWIFT CURRENT  CLEAR     34  27  75 SW9       29.93R WCI  26
REGINA         CLEAR     36  34  93 W10       29.86R WCI  28
SASKATOON      PTCLDY    39  32  75 NW13      29.85R WCI  32
$$



USA.gov is the U.S. government's official web portal to all federal, state and local government web resources and services.